Louisville, KY

9:52 AM EDT on August 30, 2016 (GMT -0400)
Louisville International-Standiford

Weather History for KSDF - January, 2012

Change the Weather History Date:

Wednesday, January 18, 2012

  Actual Average Record
Temperature  
Mean Temperature 32 °F 35 °F  
Max Temperature 36 °F 43 °F 72 °F (1929)
Min Temperature 28 °F 27 °F -16 °F (1994)
Degree Days  
Heating Degree Days 33 30  
Month to date heating degree days 482 540  
Since 1 July heating degree days 1817 2116  
Cooling Degree Days 0 0  
Month to date cooling degree days 0 0  
Year to date cooling degree days 0 0  
Moisture  
Dew Point 18 °F    
Average Humidity 57    
Maximum Humidity 69    
Minimum Humidity 44    
Precipitation  
Precipitation 0.00 in 0.09 in 3.36 in (1876)
Month to date precipitation 1.62 1.88  
Year to date precipitation 1.62 1.88  
Snow  
Snow 0.00 in 0.10 in 3.00 in (1915)
Month to date snowfall 1.8 1.9  
Since 1 July snowfall 1.8 4.7  
Snow Depth 0.00 in    
Sea Level Pressure  
Sea Level Pressure 30.23 in    
Wind  
Wind Speed 6 mph (West)    
Max Wind Speed 17 mph    
Max Gust Speed 23 mph    
Visibility 10 miles    
Events      
T = Trace of Precipitation, MM = Missing Value Source: NWS Daily Summary

Daily Weather History Graph

Daily Weather History Graph

Search for Another Location

Airport or City:

Trip Planner

Search our weather history database for the weather conditions in past years. The results will help you decide how hot, cold, wet, or windy it might be!

Date:

Astronomy

Jan. 18, 2012 Rise Set
Actual Time 7:57 AM EST 5:49 PM EST
Civil Twilight 7:28 AM EST 6:18 PM EST
Nautical Twilight 6:56 AM EST 6:50 PM EST
Astronomical Twilight 6:24 AM EST 7:22 PM EST
Moon 3:25 AM EST (1/18) 1:28 PM EST (1/18)
Length of Visible Light 10h 49m
Length of Day
9h 52m
Waning Crescent, 25% of the Moon is Illuminated
Jan 18
Waning Crescent
Jan 23
New
Jan 30
First Quarter
Feb 7
Full
Feb 14
Last Quarter

Hourly Weather History & Observations

Time (EST) Temp. Windchill Dew Point Humidity Pressure Visibility Wind Dir Wind Speed Gust Speed Precip Events Conditions
12:56 AM 30.9 °F 22.2 °F 21.0 °F 67% 30.23 in 10.0 mi WNW 10.4 mph - N/A   Overcast
1:53 AM 30.2 °F 21.3 °F 21.2 °F 69% 30.23 in 10.0 mi NW 10.4 mph - N/A   Overcast
1:56 AM 30.9 °F 22.2 °F 21.0 °F 67% 30.25 in 10.0 mi WNW 10.4 mph - N/A   Overcast
2:56 AM 30.0 °F 20.5 °F 19.9 °F 66% 30.26 in 10.0 mi WNW 11.5 mph - N/A   Overcast
3:56 AM 30.0 °F 21.1 °F 19.9 °F 66% 30.24 in 10.0 mi NNW 10.4 mph - N/A   Overcast
4:56 AM 28.9 °F 19.8 °F 19.0 °F 67% 30.26 in 10.0 mi NW 10.4 mph - N/A   Overcast
5:14 AM 28.4 °F 19.1 °F 19.4 °F 69% 30.25 in 10.0 mi WNW 10.4 mph - N/A   Overcast
5:56 AM 28.9 °F 21.1 °F 18.0 °F 64% 30.27 in 10.0 mi NW 8.1 mph - N/A   Overcast
6:56 AM 28.9 °F 20.4 °F 17.1 °F 61% 30.30 in 10.0 mi NW 9.2 mph - N/A   Overcast
7:56 AM 28.0 °F 19.3 °F 15.1 °F 58% 30.31 in 10.0 mi WNW 9.2 mph - N/A   Overcast
8:56 AM 28.0 °F 21.7 °F 15.1 °F 58% 30.31 in 10.0 mi West 5.8 mph - N/A   Overcast
9:56 AM 28.9 °F 22.8 °F 15.1 °F 56% 30.33 in 10.0 mi NW 5.8 mph - N/A   Overcast
10:56 AM 30.0 °F - 16.0 °F 56% 30.32 in 10.0 mi Calm Calm - N/A   Scattered Clouds
11:56 AM 30.9 °F - 16.0 °F 54% 30.32 in 10.0 mi Calm Calm - N/A   Scattered Clouds
12:56 PM 33.1 °F - 16.0 °F 50% 30.27 in 10.0 mi Calm Calm - N/A   Partly Cloudy
1:56 PM 33.1 °F - 15.1 °F 48% 30.25 in 10.0 mi Calm Calm - N/A   Scattered Clouds
2:56 PM 34.0 °F 29.8 °F 16.0 °F 48% 30.22 in 10.0 mi ENE 4.6 mph - N/A   Scattered Clouds
3:56 PM 35.1 °F 30.1 °F 16.0 °F 46% 30.19 in 10.0 mi SSW 5.8 mph - N/A   Partly Cloudy
4:56 PM 34.0 °F 31.0 °F 16.0 °F 48% 30.18 in 10.0 mi South 3.5 mph - N/A   Partly Cloudy
5:56 PM 32.0 °F 28.7 °F 16.0 °F 52% 30.17 in 10.0 mi SSE 3.5 mph - N/A   Scattered Clouds
6:56 PM 30.9 °F 25.2 °F 17.1 °F 57% 30.18 in 10.0 mi SW 5.8 mph - N/A   Scattered Clouds
7:56 PM 30.9 °F 26.2 °F 16.0 °F 54% 30.16 in 10.0 mi SSE 4.6 mph - N/A   Scattered Clouds
8:56 PM 30.9 °F - 18.0 °F 59% 30.17 in 10.0 mi Calm Calm - N/A   Scattered Clouds
9:56 PM 30.0 °F 25.2 °F 19.0 °F 64% 30.15 in 10.0 mi South 4.6 mph - N/A   Mostly Cloudy
10:56 PM 30.0 °F 21.1 °F 19.0 °F 64% 30.12 in 10.0 mi SSE 10.4 mph - N/A   Overcast
11:56 PM 28.9 °F 21.9 °F 19.0 °F 67% 30.12 in 10.0 mi South 6.9 mph - N/A   Partly Cloudy